Location: Croisilles
(50.1998°N, 2.8793°E)
Time: 20:54:29
(UTC+00:00)

SJ 16-02 - Pass Details

Date: 21 January 2021
Orbit: 606 x 616 km, 75.0° (Epoch: 02 March)

Event Time Altitude Azimuth Distance (km) Brightness Sun altitude
Rises 19:03:39 0° 218° (SW) 2,867 5.3 -25.1°
Reaches altitude 10° 19:05:58 10° 225° (SW) 1,966 4.5 -25.5°
Maximum altitude 19:10:10 44° 298° (WNW) 849 2.3 -26.2°
Enters shadow 19:11:27 35° 342° (NNW) 1,005 2.5 -26.4°
